Location: Buckeye Ditch
(40.9104°N, 122.9517°W)
Time: 08:22:33
(UTC+00:00)

SR - Pass Details

Date: 19 May 2025
Orbit: 570 x 855 km, 66.7° (Epoch: 20 June)

Event Time Altitude Azimuth Distance (km) Brightness Sun altitude
Exits shadow 10:40:25 - 283° (WNW) 2,866 ? -19.7°
Reaches altitude 10° 10:42:24 10° 299° (WNW) 2,489 ? -19.5°
Maximum altitude 10:44:51 13° 324° (NW) 2,297 ? -19.2°
Drops below altitude 10° 10:47:18 10° 349° (N) 2,476 ? -18.9°
Sets 10:51:23 0° 18° (NNE) 3,380 ? -18.4°
